DW2913 Weather Reports


Display with metric or nautical units.
time (UTC)temp
F
wind
direction
speed
MPH
gust
MPH
rain 1hr
in
rain 24hr
in
rain mn
in
humidity
%
barometer
mb
20180822073711 73 186 0.0 0.0 0.00 0.00 0.00 69 1015.8
20180822073212 73 186 0.0 0.0 0.00 0.00 0.00 71 1015.9
20180822072711 72 185 0.0 0.0 0.00 0.00 0.00 72 1015.9
20180822072212 72 185 0.0 0.0 0.00 0.00 0.00 72 1016.0
20180822071709 71 185 0.0 0.0 0.00 0.00 0.00 73 1015.9
20180822071211 71 185 0.0 1.0 0.00 0.00 0.00 74 1016.0
20180822070712 70 185 0.0 1.0 0.00 0.00 0.00 75 1016.0
20180822070214 69 186 0.0 1.0 0.00 0.00 0.00 77 1016.1
20180822065709 68 185 0.0 1.0 0.00 0.00 0.00 77 1015.9
20180822065213 68 185 0.0 1.0 0.00 0.00 0.00 78 1015.9
20180822064711 67 185 0.0 1.0 0.00 0.00 0.00 80 1016.0
20180822064212 67 185 0.0 1.0 0.00 0.00 0.00 80 1016.0
20180822063712 66 185 0.0 1.0 0.00 0.00 0.00 81 1016.0
20180822063213 65 185 0.0 4.0 0.00 0.00 0.00 82 1016.0
20180822062710 65 188 0.0 4.0 0.00 0.00 0.00 82 1015.9
20180822062213 64 188 0.0 5.0 0.00 0.00 0.00 83 1015.9
20180822061710 63 188 1.0 5.0 0.00 0.00 0.00 83 1015.9
20180822061211 63 188 1.0 5.0 0.00 0.00 0.00 83 1015.8
20180822060712 62 187 1.0 5.0 0.00 0.00 0.00 83 1015.9
20180822060212 61 187 1.0 4.0 0.00 0.00 0.00 82 1016.0
20180822055709 61 186 0.0 4.0 0.00 0.00 0.00 81 1015.9
20180822055211 60 146 0.0 4.0 0.00 0.00 0.00 81 1015.9
20180822054710 59 121 0.0 4.0 0.00 0.00 0.00 81 1015.9
20180822054212 58 121 0.0 0.0 0.00 0.00 0.00 81 1016.0
20180822053711 58 121 0.0 0.0 0.00 0.00 0.00 81 1016.0
20180822053212 58 121 0.0 0.0 0.00 0.00 0.00 81 1016.0
20180822052710 57 121 0.0 0.0 0.00 0.00 0.00 81 1015.9
20180822052212 56 121 0.0 1.0 0.00 0.00 0.00 81 1016.0
20180822051709 56 121 0.0 1.0 0.00 0.00 0.00 81 1015.9
20180822051212 56 121 0.0 0.0 0.00 0.00 0.00 82 1015.8
20180822050711 56 121 0.0 0.0 0.00 0.00 0.00 82 1015.8
20180822050212 55 119 0.0 0.0 0.00 0.00 0.00 82 1015.7
20180822045712 55 119 0.0 0.0 0.00 0.00 0.00 82 1015.6
20180822045212 56 119 0.0 0.0 0.00 0.00 0.00 83 1015.7
20180822044714 56 119 0.0 0.0 0.00 0.00 0.00 83 1015.7
20180822044214 56 119 0.0 0.0 0.00 0.00 0.00 83 1015.6
20180822043713 56 119 0.0 0.0 0.00 0.00 0.00 83 1015.6
20180822043212 56 119 0.0 0.0 0.00 0.00 0.00 83 1015.5
20180822042714 56 119 0.0 0.0 0.00 0.00 0.00 83 1015.5
20180822042213 56 119 0.0 4.0 0.00 0.00 0.00 83 1015.5
20180822041714 56 119 0.0 4.0 0.00 0.00 0.00 83 1015.5
20180822041211 56 119 0.0 4.0 0.00 0.00 0.00 83 1015.5
20180822040712 57 119 0.0 4.0 0.00 0.00 0.00 83 1015.5
20180822040214 57 119 1.0 1.0 0.00 0.00 0.00 83 1015.5
20180822035709 57 119 0.0 1.0 0.00 0.00 0.00 83 1015.4
20180822035212 57 119 0.0 2.0 0.00 0.00 0.00 83 1015.4
20180822034712 57 119 0.0 2.0 0.00 0.00 0.00 83 1015.4
20180822034212 57 119 0.0 2.0 0.00 0.00 0.00 83 1015.4
20180822033710 57 119 0.0 2.0 0.00 0.00 0.00 83 1015.5
20180822033211 57 119 0.0 2.0 0.00 0.00 0.00 83 1015.5
20180822032710 57 119 0.0 2.0 0.00 0.00 0.00 83 1015.5
20180822032212 57 119 0.0 0.0 0.00 0.00 0.00 83 1015.6
20180822031709 57 119 0.0 0.0 0.00 0.00 0.00 83 1015.6
20180822031211 57 119 0.0 0.0 0.00 0.00 0.00 83 1015.6
20180822030712 57 119 0.0 0.0 0.00 0.00 0.00 83 1015.6
20180822030212 57 119 0.0 0.0 0.00 0.00 0.00 83 1015.7
20180822025709 57 119 0.0 0.0 0.00 0.00 0.00 83 1015.7
20180822025211 57 119 0.0 0.0 0.00 0.00 0.00 83 1015.5
20180822024710 57 119 0.0 0.0 0.00 0.00 0.00 83 1015.7
20180822024211 58 119 0.0 0.0 0.00 0.00 0.00 83 1015.6
20180822023709 58 119 0.0 0.0 0.00 0.00 0.00 83 1015.6
20180822023209 58 119 0.0 2.0 0.00 0.00 0.00 83 1015.7
20180822022707 58 119 0.0 2.0 0.00 0.00 0.00 83 1015.8
20180822022211 58 119 0.0 2.0 0.00 0.00 0.00 83 1015.8
20180822021707 58 119 0.0 1.0 0.00 0.00 0.00 83 1015.8
20180822021210 58 119 0.0 2.0 0.00 0.00 0.00 83 1015.9
20180822020708 58 119 0.0 4.0 0.00 0.00 0.00 83 1015.9
20180822020210 58 119 0.0 4.0 0.00 0.00 0.00 83 1015.9
20180822015707 58 116 0.0 4.0 0.00 0.00 0.00 83 1015.9
20180822015209 58 71 0.0 1.0 0.00 0.00 0.00 83 1015.9
20180822014708 58 70 0.0 1.0 0.00 0.00 0.00 83 1015.8
20180822014211 58 70 0.0 1.0 0.00 0.00 0.00 83 1015.8
20180822013707 58 70 0.0 1.0 0.00 0.00 0.00 83 1015.8
20180822013209 59 70 0.0 0.0 0.00 0.00 0.00 83 1015.8
20180822012707 59 70 0.0 0.0 0.00 0.00 0.00 83 1015.8
20180822012211 59 70 0.0 0.0 0.00 0.00 0.00 83 1015.9
20180822011709 59 70 0.0 0.0 0.00 0.00 0.00 83 1015.8
20180822011210 60 70 0.0 0.0 0.00 0.00 0.00 83 1015.9
20180822010708 60 70 0.0 0.0 0.00 0.00 0.00 83 1015.9
20180822010212 60 70 0.0 0.0 0.00 0.00 0.00 83 1016.0
20180822005707 60 70 0.0 0.0 0.00 0.00 0.00 83 1016.0
20180822005209 60 70 0.0 0.0 0.00 0.00 0.00 83 1016.1
20180822004708 60 70 0.0 0.0 0.00 0.00 0.00 83 1016.1
20180822004211 60 70 0.0 1.0 0.00 0.00 0.00 83 1016.1
20180822003707 60 70 0.0 1.0 0.00 0.00 0.00 82 1016.1
20180822003209 60 70 0.0 2.0 0.00 0.00 0.00 82 1016.1
20180822002706 60 70 0.0 2.0 0.00 0.00 0.00 83 1016.1
20180822002211 60 70 0.0 2.0 0.00 0.00 0.00 83 1016.1
20180822001708 60 70 0.0 1.0 0.00 0.00 0.00 83 1016.2
20180822001209 60 70 0.0 1.0 0.00 0.00 0.00 82 1016.1
20180822000709 61 70 0.0 0.0 0.00 0.00 0.00 82 1016.2
20180822000210 61 70 0.0 0.0 0.00 0.00 0.00 82 1016.2
20180821235707 61 70 0.0 0.0 0.00 0.00 0.00 82 1016.3
20180821235209 60 70 0.0 0.0 0.00 0.00 0.00 82 1016.3
20180821234709 60 70 0.0 1.0 0.00 0.00 0.00 82 1016.4
20180821234211 60 70 0.0 1.0 0.00 0.00 0.00 82 1016.3
20180821233706 60 70 0.0 1.0 0.00 0.00 0.00 82 1016.4
20180821233209 61 70 0.0 0.0 0.00 0.00 0.00 82 1016.5
20180821232709 61 70 0.0 0.0 0.00 0.00 0.00 82 1016.3
20180821232212 61 70 0.0 0.0 0.00 0.00 0.00 82 1016.6
20180821231708 61 70 0.0 0.0 0.00 0.00 0.00 82 1016.4
20180821231209 61 70 0.0 0.0 0.00 0.00 0.00 82 1016.4
20180821230707 62 70 0.0 0.0 0.00 0.00 0.00 82 1016.4
20180821230210 62 70 0.0 0.0 0.00 0.00 0.00 81 1016.4
20180821225706 62 70 0.0 0.0 0.00 0.00 0.00 81 1016.4
20180821225210 62 70 0.0 0.0 0.00 0.00 0.00 81 1016.5
20180821224709 62 70 0.0 0.0 0.00 0.00 0.00 81 1016.4
20180821224211 62 70 0.0 0.0 0.00 0.00 0.00 81 1016.5
20180821223710 63 70 0.0 0.0 0.00 0.00 0.00 81 1016.4
20180821223211 63 70 0.0 0.0 0.00 0.00 0.00 81 1016.4
20180821222711 63 70 0.0 0.0 0.00 0.00 0.00 81 1016.5
20180821222212 63 70 0.0 0.0 0.00 0.00 0.00 81 1016.5
20180821221711 63 70 0.0 0.0 0.00 0.00 0.00 80 1016.5
20180821221209 63 70 0.0 0.0 0.00 0.00 0.00 81 1016.6
20180821220709 63 70 0.0 3.0 0.00 0.00 0.00 81 1016.4
20180821220211 63 70 0.0 3.0 0.00 0.00 0.00 80 1016.4
20180821215707 64 70 0.0 3.0 0.00 0.00 0.00 80 1016.4
20180821215209 64 70 0.0 0.0 0.00 0.00 0.00 80 1016.4
20180821214709 64 70 0.0 0.0 0.00 0.00 0.00 80 1016.3
20180821214211 64 70 0.0 0.0 0.00 0.00 0.00 79 1016.3
20180821213707 64 70 0.0 0.0 0.00 0.00 0.00 79 1016.3
20180821213210 65 70 0.0 1.0 0.00 0.00 0.00 79 1016.3
20180821212709 65 70 0.0 1.0 0.00 0.00 0.00 79 1016.3
20180821212210 65 70 0.0 1.0 0.00 0.00 0.00 79 1016.2
20180821211708 65 69 0.0 1.0 0.00 0.00 0.00 78 1016.2
20180821211210 65 69 0.0 0.0 0.00 0.00 0.00 78 1016.2
20180821210709 65 52 0.0 0.0 0.00 0.00 0.00 77 1016.2
20180821210211 66 52 0.0 0.0 0.00 0.00 0.00 76 1016.3
20180821205707 66 52 0.0 0.0 0.00 0.00 0.00 75 1016.2
20180821205210 67 52 0.0 0.0 0.00 0.00 0.00 75 1016.2
20180821204709 67 52 0.0 0.0 0.00 0.00 0.00 75 1016.1
20180821204210 67 52 0.0 0.0 0.00 0.00 0.00 74 1016.2
20180821203708 67 52 0.0 0.0 0.00 0.00 0.00 74 1016.2
20180821203211 67 52 0.0 0.0 0.00 0.00 0.00 74 1016.3
20180821202709 68 52 0.0 0.0 0.00 0.00 0.00 74 1016.2
20180821202211 68 52 0.0 0.0 0.00 0.00 0.00 74 1016.3
20180821201709 68 52 0.0 0.0 0.00 0.00 0.00 73 1016.2
20180821201210 68 52 0.0 0.0 0.00 0.00 0.00 72 1016.2
20180821200708 69 52 0.0 0.0 0.00 0.00 0.00 72 1016.1
20180821200211 69 52 0.0 0.0 0.00 0.00 0.00 72 1016.1
20180821195707 69 52 0.0 0.0 0.00 0.00 0.00 72 1016.1
20180821195209 70 52 0.0 0.0 0.00 0.00 0.00 71 1016.1
20180821194708 70 52 0.0 0.0 0.00 0.00 0.00 70 1016.0
20180821194212 70 52 0.0 0.0 0.00 0.00 0.00 70 1016.1
20180821193708 71 52 0.0 0.0 0.00 0.00 0.00 70 1016.0
20180821193210 71 52 0.0 0.0 0.00 0.00 0.00 68 1016.0
20180821192708 71 52 0.0 0.0 0.00 0.00 0.00 68 1016.0
20180821192211 71 52 0.0 0.0 0.00 0.00 0.00 67 1015.9
20180821191708 72 52 0.0 0.0 0.00 0.00 0.00 67 1015.9
20180821191210 73 52 0.0 0.0 0.00 0.00 0.00 65 1015.9
20180821190708 73 52 0.0 0.0 0.00 0.00 0.00 64 1015.7
20180821190210 74 52 0.0 0.0 0.00 0.00 0.00 62 1015.8
20180821185710 74 52 0.0 0.0 0.00 0.00 0.00 61 1015.6
20180821185210 75 52 0.0 0.0 0.00 0.00 0.00 60 1015.5
20180821184708 75 52 0.0 0.0 0.00 0.00 0.00 59 1015.4
20180821184211 76 52 0.0 0.0 0.00 0.00 0.00 58 1015.4
20180821183709 76 52 0.0 1.0 0.00 0.00 0.00 56 1015.4
20180821183210 77 52 0.0 1.0 0.00 0.00 0.00 55 1015.4
20180821182707 77 52 0.0 1.0 0.00 0.00 0.00 54 1015.4
20180821182210 78 52 0.0 6.0 0.00 0.00 0.00 53 1015.4
20180821181708 78 52 0.0 6.0 0.00 0.00 0.00 52 1015.3
20180821181210 79 52 0.0 6.0 0.00 0.00 0.00 51 1015.3
20180821180708 80 44 0.0 3.0 0.00 0.00 0.00 50 1015.3
20180821180211 80 38 0.0 3.0 0.00 0.00 0.00 50 1015.1
20180821175707 81 36 0.0 3.0 0.00 0.00 0.00 49 1015.3
20180821175210 81 34 0.0 3.0 0.00 0.00 0.00 49 1015.2
20180821174709 81 34 0.0 3.0 0.00 0.00 0.00 49 1015.2
20180821174211 81 34 0.0 6.0 0.00 0.00 0.00 49 1015.1
20180821173709 81 20 1.0 6.0 0.00 0.00 0.00 49 1015.1
20180821173210 81 19 2.0 7.0 0.00 0.00 0.00 49 1015.1
20180821172709 81 53 2.0 7.0 0.00 0.00 0.00 48 1015.0
20180821172211 81 54 2.0 7.0 0.00 0.00 0.00 48 1015.0
20180821171708 81 62 1.0 7.0 0.00 0.00 0.00 48 1015.0
20180821171209 82 63 2.0 6.0 0.00 0.00 0.00 48 1015.0
20180821170707 82 65 2.0 8.0 0.00 0.00 0.00 47 1015.0
20180821170211 83 69 2.0 8.0 0.00 0.00 0.00 46 1015.0
20180821165706 83 53 2.0 8.0 0.00 0.00 0.00 46 1014.9
20180821165210 84 67 3.0 9.0 0.00 0.00 0.00 44 1014.9
20180821164709 84 43 3.0 9.0 0.00 0.00 0.00 44 1014.9
20180821164211 83 48 3.0 8.0 0.00 0.00 0.00 45 1014.9
20180821163712 83 42 3.0 8.0 0.00 0.00 0.00 45 1014.8
20180821163211 83 64 2.0 11.0 0.00 0.00 0.00 46 1014.7
20180821162710 83 48 3.0 11.0 0.00 0.00 0.00 45 1014.8
20180821162214 84 54 3.0 11.0 0.00 0.00 0.00 44 1014.8
20180821161711 85 42 4.0 10.0 0.00 0.00 0.00 43 1014.7
20180821161210 85 72 5.0 10.0 0.00 0.00 0.00 44 1014.7
20180821160711 85 53 4.0 11.0 0.00 0.00 0.00 43 1014.7
20180821160213 86 11 4.0 10.0 0.00 0.00 0.00 41 1014.8
20180821155709 86 51 4.0 10.0 0.00 0.00 0.00 42 1014.7
20180821155211 86 37 4.0 12.0 0.00 0.00 0.00 42 1014.7
20180821154710 86 71 5.0 12.0 0.00 0.00 0.00 42 1014.7
20180821154212 85 343 5.0 10.0 0.00 0.00 0.00 43 1014.7
20180821153711 85 17 3.0 10.0 0.00 0.00 0.00 43 1014.7
20180821153211 85 31 2.0 9.0 0.00 0.00 0.00 42 1014.9
20180821152710 87 5 1.0 9.0 0.00 0.00 0.00 42 1014.8
20180821152212 86 349 1.0 9.0 0.00 0.00 0.00 43 1015.0
20180821151709 86 341 3.0 9.0 0.00 0.00 0.00 43 1014.9
20180821151211 85 54 3.0 10.0 0.00 0.00 0.00 43 1015.0
20180821150712 85 337 3.0 10.0 0.00 0.00 0.00 45 1014.9
20180821150212 84 61 3.0 8.0 0.00 0.00 0.00 45 1014.8
20180821145709 84 78 3.0 8.0 0.00 0.00 0.00 45 1014.9
20180821145211 85 91 2.0 8.0 0.00 0.00 0.00 44 1014.8
20180821144711 85 329 3.0 8.0 0.00 0.00 0.00 43 1015.0
20180821144214 86 350 3.0 8.0 0.00 0.00 0.00 44 1015.1
20180821143713 86 355 3.0 8.0 0.00 0.00 0.00 44 1014.9
20180821143211 86 54 4.0 14.0 0.00 0.00 0.00 44 1015.0
20180821142710 85 43 3.0 14.0 0.00 0.00 0.00 46 1015.1
20180821142212 85 15 4.0 10.0 0.00 0.00 0.00 45 1015.1
20180821141708 85 19 4.0 10.0 0.00 0.00 0.00 46 1015.0
20180821141212 84 33 4.0 10.0 0.00 0.00 0.00 47 1015.0
20180821140712 83 46 5.0 10.0 0.00 0.00 0.00 47 1015.0
20180821140212 83 46 4.0 13.0 0.00 0.00 0.00 47 1015.0
20180821135709 84 76 4.0 13.0 0.00 0.00 0.00 46 1015.1
20180821135211 85 112 4.0 13.0 0.00 0.00 0.00 45 1015.1
20180821134711 85 46 4.0 13.0 0.00 0.00 0.00 46 1015.2
20180821134214 84 35 3.0 11.0 0.00 0.00 0.00 47 1015.2
20180821133713 84 63 1.0 11.0 0.00 0.00 0.00 47 1015.4
20180821133211 83 79 2.0 13.0 0.00 0.00 0.00 48 1015.4
20180821132710 83 78 4.0 13.0 0.00 0.00 0.00 47 1015.6
20180821132212 83 68 4.0 12.0 0.00 0.00 0.00 48 1015.5
20180821131710 84 55 3.0 12.0 0.00 0.00 0.00 47 1015.5
20180821131212 83 14 4.0 12.0 0.00 0.00 0.00 49 1015.7
20180821130713 83 35 5.0 12.0 0.00 0.00 0.00 47 1015.7
20180821130213 84 76 3.0 10.0 0.00 0.00 0.00 46 1015.6
20180821125709 84 38 2.0 10.0 0.00 0.00 0.00 48 1015.6
20180821125211 84 46 3.0 13.0 0.00 0.00 0.00 48 1015.7
20180821124710 83 38 5.0 13.0 0.00 0.00 0.00 47 1015.9
20180821124213 83 53 6.0 11.0 0.00 0.00 0.00 49 1015.8
20180821123712 83 66 6.0 11.0 0.00 0.00 0.00 49 1016.0
20180821123212 83 61 5.0 11.0 0.00 0.00 0.00 51 1016.0
20180821122710 83 24 4.0 11.0 0.00 0.00 0.00 51 1016.1
20180821122212 83 5 2.0 11.0 0.00 0.00 0.00 52 1016.1
20180821121710 82 42 4.0 11.0 0.00 0.00 0.00 52 1016.3
20180821121212 82 76 3.0 15.0 0.00 0.00 0.00 51 1016.3
20180821120712 82 57 3.0 15.0 0.00 0.00 0.00 52 1016.3
20180821120212 82 5 6.0 15.0 0.00 0.00 0.00 50 1016.2
20180821115708 82 51 7.0 15.0 0.00 0.00 0.00 52 1016.3
20180821115211 82 46 6.0 14.0 0.00 0.00 0.00 51 1016.3
20180821114713 82 54 5.0 14.0 0.00 0.00 0.00 51 1016.5
20180821114213 82 50 4.0 15.0 0.00 0.00 0.00 52 1016.5
20180821113711 81 76 5.0 15.0 0.00 0.00 0.00 53 1016.5
20180821113211 81 13 6.0 14.0 0.00 0.00 0.00 53 1016.5
20180821112711 81 53 4.0 14.0 0.00 0.00 0.00 53 1016.7
20180821112213 81 59 3.0 14.0 0.00 0.00 0.00 54 1016.7
20180821111711 80 44 5.0 14.0 0.00 0.00 0.00 55 1016.7
20180821111211 80 91 6.0 14.0 0.00 0.00 0.00 54 1016.8
20180821110712 80 93 5.0 14.0 0.00 0.00 0.00 54 1016.9
20180821110212 81 38 5.0 14.0 0.00 0.00 0.00 54 1016.9
20180821105713 80 55 5.0 14.0 0.00 0.00 0.00 55 1016.9
20180821105214 80 18 4.0 11.0 0.00 0.00 0.00 55 1017.0
20180821104714 81 108 4.0 11.0 0.00 0.00 0.00 54 1017.1
20180821104214 80 51 3.0 10.0 0.00 0.00 0.00 55 1017.2
20180821103712 80 71 3.0 10.0 0.00 0.00 0.00 56 1017.2
20180821103213 80 53 5.0 13.0 0.00 0.00 0.00 55 1017.1
20180821102715 80 79 6.0 13.0 0.00 0.00 0.00 55 1017.2
20180821102213 80 27 5.0 10.0 0.00 0.00 0.00 55 1017.1
20180821101712 80 65 4.0 10.0 0.00 0.00 0.00 55 1017.2
20180821101211 80 70 3.0 14.0 0.00 0.00 0.00 57 1017.1
20180821100711 79 48 3.0 14.0 0.00 0.00 0.00 56 1017.1
20180821100213 79 73 4.0 14.0 0.00 0.00 0.00 57 1017.3
20180821095709 79 65 4.0 14.0 0.00 0.00 0.00 57 1017.3
20180821095211 78 5 4.0 11.0 0.00 0.00 0.00 58 1017.3
20180821094712 78 102 4.0 11.0 0.00 0.00 0.00 57 1017.3
20180821094212 78 67 4.0 13.0 0.00 0.00 0.00 58 1017.4
20180821093710 78 53 4.0 13.0 0.00 0.00 0.00 59 1017.5
20180821093212 78 65 5.0 11.0 0.00 0.00 0.00 58 1017.5
20180821092710 78 65 4.0 11.0 0.00 0.00 0.00 58 1017.5
20180821092212 77 23 4.0 11.0 0.00 0.00 0.00 59 1017.5
20180821091709 77 45 4.0 11.0 0.00 0.00 0.00 61 1017.5
20180821091212 76 45 5.0 11.0 0.00 0.00 0.00 60 1017.6
20180821090713 77 54 4.0 11.0 0.00 0.00 0.00 59 1017.6
20180821090212 76 64 3.0 11.0 0.00 0.00 0.00 62 1017.6
20180821085710 76 67 4.0 11.0 0.00 0.00 0.00 61 1017.6
20180821085211 76 74 5.0 11.0 0.00 0.00 0.00 62 1017.6
20180821084710 76 79 4.0 11.0 0.00 0.00 0.00 62 1017.6
20180821084212 76 40 4.0 11.0 0.00 0.00 0.00 62 1017.6
20180821083710 75 74 5.0 11.0 0.00 0.00 0.00 62 1017.6
20180821083212 75 59 4.0 7.0 0.00 0.00 0.00 63 1017.6
20180821082710 75 42 3.0 7.0 0.00 0.00 0.00 63 1017.6
20180821082212 75 65 2.0 8.0 0.00 0.00 0.00 63 1017.6
20180821081709 75 67 2.0 8.0 0.00 0.00 0.00 64 1017.7
20180821081211 74 78 2.0 6.0 0.00 0.00 0.00 66 1017.7
20180821080712 74 44 2.0 6.0 0.00 0.00 0.00 66 1017.7
20180821080213 74 84 1.0 0.0 0.00 0.00 0.00 66 1017.8
20180821075711 74 76 0.0 0.0 0.00 0.00 0.00 68 1017.8
20180821075211 73 76 0.0 0.0 0.00 0.00 0.00 69 1017.8
20180821074709 72 76 0.0 0.0 0.00 0.00 0.00 70 1017.8
20180821074212 72 76 0.0 0.0 0.00 0.00 0.00 70 1017.8